ETH430 HAAB-OJAI

Flight info

Callsign ETH430
Flight time N/A
Altitude 36000
Route EKBOB1A EKBOB DCT KONET/N0461F350 UG650 ULONI/N0458F370 UG650 RASKA/N0458F360 T513 EGMEG/N0454F370 T513 JDW/N0458F360 L677 WEJ M449 MUNRA
Aircraft B738/M-SDE2E3FGHIRWXY/LB1

Departure

Time N/A
Airport Addis Ababa Bole International Airport (HAAB)

Arrival

Time 2026-05-08 12:39
Airport Queen Alia International Airport (OJAI)
Time Latitude Longitude Altitude Speed Heading
2026-05-08 12:12 29.68181 36.37270 35978 ft 385 kts 348°
2026-05-08 12:13 29.73453 36.36266 35974 ft 385 kts 347°
2026-05-08 12:13 29.78727 36.35180 35978 ft 384 kts 347°
2026-05-08 12:14 29.83999 36.34090 35977 ft 384 kts 347°
2026-05-08 12:14 29.89266 36.33009 35991 ft 384 kts 347°
2026-05-08 12:15 29.94549 36.31927 35984 ft 385 kts 347°
2026-05-08 12:15 29.99824 36.30846 35980 ft 385 kts 347°
2026-05-08 12:16 30.05062 36.29771 35981 ft 385 kts 347°
2026-05-08 12:16 30.10347 36.28686 35981 ft 385 kts 347°
2026-05-08 12:17 30.15616 36.27603 35991 ft 385 kts 347°
2026-05-08 12:17 30.20892 36.26519 35984 ft 385 kts 348°
2026-05-08 12:18 30.26171 36.25479 35852 ft 387 kts 348°
2026-05-08 12:18 30.28847 36.24957 35441 ft 388 kts 348°
2026-05-08 12:18 30.31461 36.24448 34946 ft 384 kts 348°
2026-05-08 12:19 30.34077 36.23938 34538 ft 379 kts 348°
2026-05-08 12:19 30.36660 36.23433 34118 ft 374 kts 348°
2026-05-08 12:19 30.39214 36.22932 33647 ft 370 kts 348°
2026-05-08 12:19 30.41741 36.22436 33185 ft 366 kts 348°
2026-05-08 12:20 30.43442 36.22101 32904 ft 363 kts 348°
2026-05-08 12:20 30.45918 36.21614 32466 ft 359 kts 348°
2026-05-08 12:20 30.48338 36.21137 32055 ft 355 kts 348°
2026-05-08 12:20 30.50765 36.20658 31642 ft 351 kts 349°
2026-05-08 12:21 30.53162 36.20186 31239 ft 347 kts 349°
2026-05-08 12:21 30.55544 36.19715 30848 ft 350 kts 349°
2026-05-08 12:21 30.57987 36.19232 30453 ft 359 kts 349°
2026-05-08 12:21 30.60444 36.18746 30018 ft 357 kts 349°
2026-05-08 12:22 30.62886 36.18264 29551 ft 354 kts 349°
2026-05-08 12:22 30.65307 36.17786 29084 ft 351 kts 349°
2026-05-08 12:22 30.67707 36.17312 28642 ft 349 kts 348°
2026-05-08 12:22 30.70089 36.16841 28211 ft 346 kts 348°
2026-05-08 12:23 30.72472 36.16369 27801 ft 348 kts 348°
2026-05-08 12:23 30.74890 36.15888 27391 ft 357 kts 348°
2026-05-08 12:23 30.77336 36.15404 26954 ft 357 kts 348°
2026-05-08 12:23 30.79773 36.14921 26527 ft 354 kts 348°
2026-05-08 12:24 30.82201 36.14441 26109 ft 352 kts 348°
2026-05-08 12:24 30.84641 36.14163 25636 ft 354 kts 356°
2026-05-08 12:24 30.87079 36.14179 25180 ft 356 kts 358°
2026-05-08 12:24 30.89561 36.14278 24696 ft 358 kts 359°
2026-05-08 12:25 30.92065 36.14383 24196 ft 362 kts 359°
2026-05-08 12:25 30.94598 36.14472 23696 ft 366 kts 358°
2026-05-08 12:25 30.97154 36.14544 23120 ft 368 kts 358°
2026-05-08 12:25 30.99715 36.14603 22591 ft 368 kts 358°
2026-05-08 12:26 31.02282 36.14655 22074 ft 369 kts 358°
2026-05-08 12:26 31.04848 36.14703 21559 ft 368 kts 358°
2026-05-08 12:26 31.07403 36.14750 21059 ft 367 kts 358°
2026-05-08 12:26 31.09961 36.14797 20572 ft 367 kts 358°
2026-05-08 12:27 31.12507 36.14844 20074 ft 366 kts 358°
2026-05-08 12:27 31.15056 36.14894 19580 ft 366 kts 360°
2026-05-08 12:27 31.17567 36.15414 19066 ft 372 kts 18°
2026-05-08 12:27 31.19974 36.16549 18574 ft 373 kts 20°
2026-05-08 12:28 31.22369 36.17714 18025 ft 374 kts 20°
2026-05-08 12:28 31.24744 36.18857 17477 ft 373 kts 20°
2026-05-08 12:28 31.27156 36.20000 16957 ft 372 kts 20°
2026-05-08 12:28 31.29559 36.21127 16444 ft 371 kts 20°
2026-05-08 12:29 31.31956 36.22244 15942 ft 370 kts 20°
2026-05-08 12:29 31.34347 36.23356 15443 ft 369 kts 20°
2026-05-08 12:29 31.36738 36.24469 14941 ft 368 kts 20°
2026-05-08 12:29 31.39182 36.25608 14411 ft 368 kts 20°
2026-05-08 12:30 31.41564 36.26718 13912 ft 368 kts 20°
2026-05-08 12:30 31.43913 36.27814 13341 ft 368 kts 20°
2026-05-08 12:30 31.46295 36.28926 12745 ft 369 kts 21°
2026-05-08 12:30 31.48673 36.30036 12225 ft 367 kts 21°
2026-05-08 12:31 31.51097 36.30898 11694 ft 361 kts
2026-05-08 12:31 31.53554 36.30775 11222 ft 349 kts 349°
2026-05-08 12:31 31.55915 36.30278 10755 ft 340 kts 348°
2026-05-08 12:31 31.58214 36.29789 10302 ft 332 kts 349°
2026-05-08 12:32 31.60445 36.29336 9859 ft 325 kts 350°
2026-05-08 12:32 31.62637 36.28904 9449 ft 316 kts 350°
2026-05-08 12:32 31.64779 36.28486 9083 ft 307 kts 350°
2026-05-08 12:32 31.66872 36.28079 8611 ft 303 kts 350°
2026-05-08 12:33 31.68945 36.27676 8124 ft 300 kts 350°
2026-05-08 12:33 31.70999 36.27276 7630 ft 297 kts 350°
2026-05-08 12:33 31.73023 36.26882 7117 ft 292 kts 350°
2026-05-08 12:33 31.75000 36.26440 6529 ft 286 kts 341°
2026-05-08 12:34 31.76593 36.25192 5897 ft 279 kts 306°
2026-05-08 12:34 31.77255 36.23135 5427 ft 266 kts 269°
2026-05-08 12:34 31.76822 36.21141 5322 ft 241 kts 248°
2026-05-08 12:34 31.76290 36.19366 5274 ft 219 kts 254°
2026-05-08 12:35 31.75934 36.17707 5266 ft 202 kts 257°
2026-05-08 12:35 31.75618 36.16072 5009 ft 206 kts 257°
2026-05-08 12:35 31.75316 36.14437 4729 ft 204 kts 258°
2026-05-08 12:35 31.75036 36.12824 4474 ft 198 kts 259°
2026-05-08 12:36 31.74773 36.11256 4207 ft 193 kts 258°
2026-05-08 12:36 31.74519 36.09713 3958 ft 193 kts 261°
2026-05-08 12:36 31.74293 36.08161 3705 ft 191 kts 261°
2026-05-08 12:36 31.74074 36.06654 3433 ft 180 kts 263°
2026-05-08 12:37 31.73873 36.05254 3183 ft 170 kts 262°
2026-05-08 12:37 31.73682 36.03937 2978 ft 164 kts 260°
2026-05-08 12:37 31.73489 36.02607 2789 ft 167 kts 259°
2026-05-08 12:37 31.73299 36.01249 2582 ft 170 kts 258°
2026-05-08 12:38 31.73110 35.99917 2390 ft 155 kts 258°
2026-05-08 12:38 31.72938 35.98769 2378 ft 125 kts 259°
2026-05-08 12:38 31.72818 35.97938 2368 ft 80 kts 261°
2026-05-08 12:38 31.72740 35.97389 2369 ft 64 kts 260°
2026-05-08 12:39 31.72696 35.97083 2370 ft 26 kts 260°
2026-05-08 12:39 31.72629 35.96980 2369 ft 16 kts 181°
2026-05-08 12:39 31.72521 35.96995 2367 ft 16 kts 172°
2026-05-08 12:39 31.72425 35.97039 2367 ft 15 kts 126°
2026-05-08 12:40 31.72427 35.97156 2367 ft 14 kts 79°
2026-05-08 12:40 31.72443 35.97269 2368 ft 14 kts 82°
2026-05-08 12:40 31.72457 35.97377 2368 ft 13 kts 81°
2026-05-08 12:40 31.72473 35.97480 2368 ft 13 kts 79°
2026-05-08 12:41 31.72489 35.97584 2368 ft 13 kts 81°
2026-05-08 12:41 31.72505 35.97698 2369 ft 15 kts 80°
2026-05-08 12:41 31.72523 35.97821 2369 ft 16 kts 80°
2026-05-08 12:41 31.72541 35.97952 2369 ft 16 kts 81°
2026-05-08 12:42 31.72560 35.98087 2370 ft 17 kts 79°
2026-05-08 12:42 31.72581 35.98220 2370 ft 16 kts 80°
2026-05-08 12:42 31.72600 35.98348 2371 ft 16 kts 80°
2026-05-08 12:42 31.72617 35.98471 2371 ft 15 kts 81°
2026-05-08 12:43 31.72635 35.98588 2372 ft 14 kts 80°
2026-05-08 12:43 31.72650 35.98701 2376 ft 14 kts 81°
2026-05-08 12:43 31.72666 35.98809 2376 ft 13 kts 81°
2026-05-08 12:43 31.72639 35.98895 2373 ft 13 kts 162°
2026-05-08 12:44 31.72554 35.98920 2372 ft 12 kts 152°
2026-05-08 12:44 31.72484 35.98954 2372 ft 11 kts 171°
2026-05-08 12:44 31.72442 35.98962 2374 ft 2 kts 171°
2026-05-08 12:44 31.72439 35.98962 2374 ft 0 kts 171°